Location: Amberg
(48.0613°N, 10.6820°E)
Time: 07:56:24
(UTC+00:00)

COSMOS 2406 - Pass Details

Date: 18 November 2025
Orbit: 845 x 859 km, 71.0° (Epoch: 13 December)

Event Time Altitude Azimuth Distance (km) Brightness Sun altitude
Rises 16:22:53 0° 336° (NNW) 3,417 6.4 -8.0°
Reaches altitude 10° 16:25:43 10° 349° (NNW) 2,479 5.6 -8.4°
Maximum altitude 16:30:32 28° 47° (NE) 1,562 4.1 -9.2°
Drops below altitude 10° 16:35:21 10° 105° (ESE) 2,474 5.1 -9.9°
Enters shadow 16:36:53 - 112° (ESE) 2,974 5.6 -10.2°
